Regional Weather Roundup
Issued by NWS

Home | Current Version | Previous Version | Text Only | Print | Product List | Glossary On
Versions: 1 2 3 4 5 6 7 8 9 10 11 12 13 14 15 16 17 18 19 20 21 22 23 24 25 26 27 28 29 30 31 32 33 34 35 36 37 38 39 40 41 42 43 44 45 46 47 48 49 50
000
ASCA44 KEWX 101820
RWRMX

LATIN AMERICA AND CARIBBEAN REGIONAL WEATHER ROUNDUP
NATIONAL WEATHER SERVICE AUSTIN/SAN ANTONIO TX
100 PM CDT THU JUL 10 2014

NOTE: "FAIR" INDICATED FEW OR NO CLOUDS BELOW 12,000 FEET WITH NO
SIGNIFICANT WEATHER AND/OR OBSTRUCTIONS TO VISIBILITY.

BAJA CALIFORNIA

CITY           SKY/WX    TMP DP  RH WIND       PRES   REMARKS
LORETO         MOSUNNY   90  68  48 NE12      29.85  HX  93
LA PAZ         MOSUNNY   90  61  37 W7        29.92
MEXICALI       SUNNY     93  63  36 S3        29.84  HX  94
S.J. DEL CABO  MOSUNNY   91  66  43 E12       29.90F HX  94
TIJUANA        SUNNY     75  57  53 W9        29.98F

NORTHWESTERN MEXICO

CITY           SKY/WX    TMP DP  RH WIND       PRES   REMARKS
CULIACAN       MOSUNNY   91  72  52 CALM      29.89  HX  98
DURANGO        PTSUNNY   72  55  56 N5        30.21F
GUAYMAS        MOSUNNY   91  79  66 CALM      29.84  HX 107
HERMOSILLO     MOSUNNY   93  72  49 CALM      29.93  HX 100
CD. JUAREZ     MOSUNNY   90  43  19 E12       30.02
LOS MOCHIS     MOSUNNY   88  73  62 S9        29.89F HX  96
OBREGON        PTSUNNY   90  68  48 CALM      29.86  HX  93

NORTHEASTERN MEXICO

CITY           SKY/WX    TMP DP  RH WIND       PRES   REMARKS
CHIHUAHUA      MOSUNNY   84  54  34 E6        30.11
MATAMOROS      TSTM      72  72 100 CALM      30.06
MONCLOVA         N/A    N/A N/A N/A MISG        N/A
MONTERREY      CLOUDY    77  66  69 SE6       30.03S
NUEVO LAREDO   CLOUDY    82  70  65 SE6       30.05
PIEDRAS NEGRAS PTSUNNY   86  66  51 SE12      30.06S
REYNOSA        LGT RAIN  72  68  88 E6        30.04
SALTILLO       PTSUNNY   79  64  61 N10       30.18F
TORREON        PTSUNNY   81  63  54 E5        30.07F
CD. VICTORIA   CLOUDY    77  72  83 S9        30.02

WESTERN MEXICO

CITY           SKY/WX    TMP DP  RH WIND       PRES   REMARKS
AGUASCALIENTES PTSUNNY   70  54  56 S7        30.27
COLIMA         MOSUNNY   84  72  65 CALM      30.01F
DEL BAJIO      PTSUNNY   73  55  53 CALM      30.30F
GUADALAJARA    PTSUNNY   75  57  53 SW7       30.18
MANZANILLO     MOSUNNY   93  79  62 S7        29.82F HX 110
MAZATLAN       MOSUNNY   88  72  58 SW8       29.87F HX  94
P. VALLARTA    MOSUNNY   90  75  62 SW8       29.90F HX 100
URUAPAN        CLOUDY    68  66  94 S7        30.21  THUNDER
ZACATECAS      PTSUNNY   70  54  56 W7        30.28F

CENTRAL MEXICO

CITY           SKY/WX    TMP DP  RH WIND       PRES   REMARKS
CUERNAVACA     PTSUNNY   77  61  57 CALM      30.15F
MEXICO CITY    PTSUNNY   68  54  60 NE8       30.34F
MORELIA        PTSUNNY   75  55  50 CALM      30.25
POZA RICA      PTSUNNY   84  75  74 CALM      30.00F HX  92
PUEBLA         CLOUDY    70  54  56 W3        30.37F
S. LUIS POTOSI PTSUNNY   72  55  56 E8        30.24F
TAMPICO        CLOUDY    79  70  73 S12       30.00F
TOLUCA         PTSUNNY   68  43  40 NW3       30.40F

SOUTHERN MEXICO

CITY           SKY/WX    TMP DP  RH WIND       PRES   REMARKS
ACAPULCO       PTSUNNY   90  77  66 NE5       29.88F HX 102
B. DE HUATULCO MOSUNNY   86  73  66 CALM      29.92  HX  93
OAXACA         MOSUNNY   77  54  44 N2        30.22F
P. ESCONDIDO   MOSUNNY   88  77  70 SW9       30.02S HX 100
VERACRUZ       CLOUDY    86  75  70 E5        29.98F HX  95
ZIHUATANEJO    MOSUNNY   91  75  59 SW12      29.88F HX 102

YUCATAN PENINSULA

CITY           SKY/WX    TMP DP  RH WIND       PRES   REMARKS
CAMPECHE       MOSUNNY   91  72  52 SE12      29.97F HX  98
CANCUN         MOSUNNY   88  77  70 NE9       30.05F HX 100
CHETUMAL       PTSUNNY   88  79  74 SE7       29.99F HX 102
CD. DEL CARMEN MOSUNNY   88  73  62 SE23      29.96  HX  96
COZUMEL        PTSUNNY   86  77  74 NE17      30.04F HX  97
MERIDA         PTSUNNY   90  68  48 E10       30.02F HX  93
MINATITLAN     PTSUNNY   84  66  54 N12       29.93
TAPACHULA      MOSUNNY   91  79  66 W12       29.85F HX 107
TUX. GUTIERREZ MOSUNNY   86  66  51 S8        29.97F
VILLAHERMOSA   PTSUNNY   90  72  55 E17       29.95F HX  96

CENTRAL AMERICA

CITY           SKY/WX    TMP DP  RH WIND       PRES   REMARKS
BELIZE CITY    MOSUNNY   90  75  62 E10       30.00S HX 100
MANAGUA        PTCLDY    91  66  43 NE14      29.83F HX  94

CARIBBEAN

CITY           SKY/WX    TMP DP  RH WIND       PRES   REMARKS
ARUBA          MOSUNNY   90  77  66 E26       29.89F HX 102
CURACAO        MOSUNNY   86  75  70 E15       29.92F HX  95
KINGSTON       MOSUNNY   91  77  62 SE26      29.94F HX 105
NASSAU         MOSUNNY   90  73  58 SE12      30.13F HX  98
SAN JUAN       MOSUNNY   91  72  52 NE21      30.06F HX  98
SANTO DOMINGO  MOSUNNY   90  75  62 SE14      30.00S HX 100
ST. CROIX      MOSUNNY   91  73  55 E22G28    30.06F HX 100
ST. KITTS      MOSUNNY   88  77  70 NE21      30.03F HX 100
ST. MAARTEN    MOSUNNY   86  73  66 E16       30.06S HX  93
ST. THOMAS     CLOUDY    86  75  70 SE13      30.05F HX  95

$$




USA.gov is the U.S. government's official web portal to all federal, state and local government web resources and services.